Showing default

HJS-6D, 63431

Orbit data source: Space-Track

HJS-6D, 63431 is a payload satellite owned by Zhongguo Xingwang (CN) in LEO that was launched on Tue, 01 Apr 2025 UTC via a CHANG ZHENG 2D launch vehicle from the Jiuquan Satellite Launch Center, China (JSC). Payload-class satellites include a variety of spacecraft equipped with specific instruments for various scientific and technological missions. These include communications satellites like Starlink; space stations such as the ISS; scientific satellites like the Hubble; Earth observation satellites from companies like Planet Labs, Umbra, and HawkEye 360; GPS; miniature CubeSats for education and research; and military/defense satellites.

Loading next visibility...
Identifier
63431, 2025-067D
Orbit
LEO
Country
Flag of CNCN / PRC
Related business
Manufacturer
Changguang WJ
Mission
Operational Civil Communications
Bus & Motor
Unknown
Mass
~300 kg wet, ~300 kg dry
Launch date (UTC)
2025-04-01 (10 months ago)
Launch vehicle
CHANG ZHENG 2D
Launch site
Jiuquan Satellite Launch Center, China (JSC)
Object type
Payload
Rocket body
Debris
Shape & HBR
Box + 2 Pan, 1.1 m
Radar Cross Section
2.320 m², Large (>1 m²)

Expand to show TLE details & history
Last TLE update: 10 hours ago

TLE from 10 hours ago
0 HJS-6D
1 63431U 25067D   26034.10802480  .00039010  00000-0  10358-2 0  9997
2 63431  54.9911 265.0113 0005090  14.6952 345.4222 15.37955756 47384
Epoch: 2026-02-03T02:35Z
TLE epoch observation values (Epoch: 2026-02-03T02:35:33.342Z)
Latitude
-0.0001°
Longitude
92.82861°
Altitude
449.889 km
Speed
7.645 km/s
True Right ascension
17h 40m 02s
True Declination
0° 00' 00"
Sunlit
Object was in daylight at epoch
Visualization orbit readout
Latitude
Unknown
Longitude
Unknown
Altitude
Unknown
Speed
Unknown
Apparent Right ascension
Unknown
Apparent Declination
Unknown
Sunlit
N/A
Visualization observer readout
Local Sidereal Time
14:03:17
Azimuth
Unknown
Elevation
Unknown
Doppler factor
Unknown
Orbital elements
Apogee altitude
455.595 km
Perigee altitude
448.642 km
Semi-major axis
6,830.256 km
Eccentricity
0.00051
Inclination
54.9911°
RAAN
265.0113°
Arg. of periapsis
14.6952°
True anomaly
345.40751°
Mean anomaly
345.4222°
Eccentric anomaly
345.41486°
Mean motion
3.84492 °/min
Orbital period
93.63 mins
BSTAR
0.0010358
Loading maneuver chart data...
Computing Atmospheric mass density...
Loading historical data...
Loading historical data...
Loading historical data...
Loading historical data...
Loading historical data...
Loading historical data...
Loading historical data...
Other satellites on launch #67 in the year 2025 (2025-04-01 UTC)

Documentation

Showing up to 5 results
|